Location: Redwood City
(37.4850°N, 122.2350°W)
Time: 09:08:39
(UTC-07:00)

ISS - Visible Passes

Search period start: 21 September 2014 00:00
Search period end: 01 October 2014 00:00
Orbit: 413 x 417 km, 51.6° (Epoch: 21 September)

Date Brightness Start Highest point End Pass type
(mag) Time Alt. Az. Time Alt. Az. Time Alt. Az.
25 Sep -0.4 05:47:04 10° N 05:48:15 11° NNE 05:49:25 10° NE visible
27 Sep -0.8 05:44:42 10° NNW 05:47:14 20° NNE 05:49:45 10° ENE visible
28 Sep -0.5 04:57:18 14° N 04:57:54 14° NNE 04:59:46 10° ENE visible
28 Sep -3.2 06:31:43 10° NW 06:35:03 80° NE 06:38:21 10° SE visible
29 Sep -2.2 05:43:30 16° NNW 05:45:52 43° NE 05:49:02 10° ESE visible
30 Sep -1.2 04:56:56 26° NE 04:56:56 26° NE 04:59:26 10° E visible
30 Sep -2.4 06:30:16 10° WNW 06:33:16 31° SW 06:36:14 10° SSE visible
